EHI
0 0 0 0 0 0 1 4 5 3 2 1 1 2 3 2 1 0 0 0 0 0 0 0 0 0 0 0 0 0 0 0 0 0 0 0 0 0 0 0 0 0 0
0 0 0 0 0 0 1 2 4 4 3 2 1 1 2 1 0 0 0 0 0 0 0 0 0 0 0 0 0 0 0 0 0 0 0 0 0 0 0 0 0 0 0
0 0 0 0 0 1 1 1 2 3 3 3 2 1 1 1 0 0 0 0 0 0 0 0 0 0 0 0 0 0 0 0 0 0 0 0 0 0 0 0 0 0 0
0 0 0 0 0 1 2 2 1 1 2 3 3 2 1 1 0 0 0 0 0 0 0 0 0 0 0 0 0 0 0 0 0 0 0 0 0 0 0 0 0 0 0
0 0 0 0 0 1 2 2 1 0 1 3 3 2 1 1 0 0 0 0 0 0 0 0 0 0 0 0 0 0 0 0 0 0 0 0 0 0 0 0 0 0 0
0 0 0 0 0 0 1 2 1 0 1 2 3 3 1 0 0 0 0 0 0 0 0 0 0 0 0 0 0 0 0 0 0 0 0 0 0 0 0 0 0 0 0
0 0 0 0 0 0 0 1 1 0 1 2 3 3 2 2 2 1 1 1 0 0 0 0 0 0 0 0 0 0 0 0 0 0 0 0 0 0 0 0 0 0 0
0 0 0 0 0 0 0 0 0 0 0 1 1 2 2 2 2 2 2 2 1 0 0 0 0 0 0 0 0 0 0 0 0 0 0 0 0 0 0 0 0 0 0
0 0 0 0 0 0 0 0 0 0 0 1 1 1 1 1 1 2 3 3 2 1 0 0 0 0 0 0 0 0 0 0 0 0 0 0 0 0 0 0 0 0 0
0 0 0 0 0 0 0 1 1 1 1 2 2 1 0 0 0 1 2 2 2 2 1 0 0 0 0 0 0 0 0 0 0 0 0 0 0 0 0 0 0 0 0
0 0 0 0 0 0 0 1 2 2 1 2 3 2 1 0 0 0 1 1 1 2 1 0 0 0 0 0 0 0 0 0 0 0 0 0 0 0 0 0 0 0 0
0 0 0 0 0 0 0 0 1 2 1 2 3 3 1 0 0 0 0 0 0 1 1 0 0 0 0 0 0 0 0 0 0 0 0 0 0 0 0 0 0 0 0
0 0 0 0 0 0 0 0 0 1 2 3 3 3 2 0 0 0 0 0 0 0 0 0 0 0 0 0 0 0 0 0 0 0 0 0 0 0 0 0 0 0 0
0 0 0 0 0 0 0 0 0 0 1 2 3 2 1 0 0 0 0 0 0 0 0 0 0 0 0 0 0 0 0 0 0 0 0 0 0 0 0 0 0 0 0
0 0 0 0 0 0 0 0 0 0 0 1 1 1 0 0 0 0 0 0 0 0 0 0 0 0 0 0 0 0 0 0 0 0 0 0 0 0 0 0 0 0 0
0 0 0 0 0 0 0 0 0 0 0 0 0 0 0 0 0 0 0 0 0 0 0 0 0 0 0 0 0 0 0 0 0 0 0 0 0 0 0 0 0 0 0
0 0 0 0 0 0 0 0 0 0 0 0 1 0 0 0 0 0 0 0 0 0 0 0 0 0 0 0 0 0 0 0 0 0 0 0 0 0 0 0 0 0 0
0 0 0 0 0 0 0 0 0 0 0 0 1 0 0 0 0 0 0 0 0 0 0 0 0 0 0 0 0 0 0 0 0 0 0 0 0 0 0 0 0 0 0
0 0 0 0 0 0 0 0 0 0 0 1 1 1 1 0 0 0 0 0 0 0 0 0 0 0 0 0 0 0 0 0 0 0 0 0 0 0 0 0 0 0 0
0 0 0 0 0 0 0 0 0 0 0 1 2 2 2 1 0 0 0 0 0 0 0 0 0 0 0 0 0 0 0 0 0 0 0 0 0 0 0 0 0 0 0
0 0 0 0 0 0 0 0 0 0 0 0 1 2 2 1 0 0 0 0 0 0 0 0 0 0 0 0 0 0 0 0 0 0 0 0 0 0 0 0 0 0 0
0 0 0 0 0 0 0 0 0 0 0 0 0 1 1 0 0 0 0 0 0 0 0 0 0 0 0 0 0 0 0 0 0 0 0 0 0 0 0 0 0 0 0
0 0 0 0 0 0 0 0 0 0 0 0 0 0 0 0 0 0 0 0 0 0 0 0 0 0 0 0 0 0 0 0 0 0 0 0 0 0 0 0 0 0 0
0 0 0 0 0 0 0 0 0 0 0 0 0 0 0 0 0 0 0 0 0 0 0 0 0 0 0 0 0 0 0 0 0 0 0 0 0 0 0 0 0 0 0
0 0 0 0 0 0 0 0 0 0 0 0 0 0 0 0 0 0 0 0 0 0 0 0 0 0 0 0 0 0 0 0 0 0 0 0 0 0 0 0 0 0 0
0 0 0 0 0 0 0 0 0 0 0 0 0 0 0 0 0 0 0 0 0 0 0 0 0 0 0 0 0 0 0 0 0 0 0 0 0 0 0 0 0 0 0
Wind_Speed
11 9 10 10 11 13 15 16 16 16 14 12 12 11 11 10 9 8 11 12 11 11 10 8 8 7 6 7 7 4 4 3 3 3 2 2 1 0 1 1 1 2 1
9 9 10 11 13 15 15 16 17 17 17 13 11 9 8 7 8 7 9 12 12 12 10 10 9 8 7 7 7 6 4 2 3 4 3 1 3 2 1 1 2 2 1
11 11 11 12 13 15 17 15 17 18 18 15 10 9 8 6 7 10 10 11 13 13 11 11 10 9 9 8 8 7 7 5 2 2 4 4 3 2 2 2 2 2 2
10 10 11 11 13 15 15 16 17 17 17 17 15 16 13 12 11 10 9 11 12 13 12 12 11 11 9 9 9 7 5 7 4 2 1 2 3 3 1 2 2 2 3
10 10 11 12 13 14 14 15 16 17 17 18 18 18 14 10 7 8 11 11 11 12 13 12 12 11 9 10 10 8 7 6 6 4 3 2 2 2 2 2 2 2 2
7 8 9 9 10 11 12 13 15 17 18 18 19 19 17 13 13 12 13 12 9 10 13 13 12 11 10 10 10 10 10 7 6 5 4 4 4 3 3 3 3 2 2
4 5 6 7 9 10 13 14 16 17 17 19 19 20 19 17 17 15 14 12 10 10 14 13 12 11 10 11 10 10 10 9 8 7 5 4 4 4 4 3 2 2 2
4 5 6 7 8 10 12 14 16 17 17 18 19 18 18 14 13 14 12 14 12 12 13 13 12 12 12 11 11 9 9 8 9 9 7 5 4 4 4 4 3 1 2
4 5 5 6 7 8 11 14 17 16 17 18 17 16 17 16 14 14 12 11 9 10 13 14 13 12 12 12 11 9 9 9 9 8 8 6 5 4 4 3 4 4 2
7 6 5 6 6 7 9 12 15 17 17 17 16 14 16 16 14 13 14 13 12 12 14 14 13 13 12 12 12 9 9 10 9 7 8 7 5 4 4 4 3 3 4
8 7 6 6 6 6 7 9 12 14 15 16 15 14 14 15 14 13 14 14 13 13 15 15 14 14 13 13 12 11 11 11 9 8 9 8 6 5 4 4 3 3 3
8 7 7 5 4 4 5 8 10 12 14 15 14 15 14 13 14 14 14 13 13 14 14 14 14 14 13 13 13 12 12 12 11 10 9 9 6 6 5 4 4 4 4
10 8 7 6 4 4 4 6 8 11 12 13 13 13 14 14 15 15 14 13 13 13 13 14 15 14 14 13 13 12 12 11 11 11 10 9 8 7 5 5 5 4 3
9 9 8 7 6 5 4 5 6 8 10 12 13 14 15 15 14 13 13 14 13 13 14 14 14 13 13 13 12 12 11 10 9 9 9 9 9 9 8 6 5 4 3
11 10 9 9 8 7 6 4 5 6 8 11 13 14 14 12 11 11 12 12 13 13 13 12 12 12 11 11 12 11 11 10 9 8 7 7 8 9 8 6 5 5 4
12 11 11 10 9 8 7 5 4 5 7 11 12 12 11 12 12 12 12 12 12 12 12 13 12 12 10 14 17 13 10 10 9 8 7 6 7 8 9 9 9 8 5
12 11 11 10 10 9 7 6 5 5 7 9 11 11 12 13 12 12 12 12 12 11 12 12 12 11 12 17 18 16 10 9 9 9 8 6 6 7 6 7 8 6 6
12 12 11 11 10 9 7 5 4 5 7 8 9 11 12 12 12 12 12 12 10 11 10 11 11 10 11 17 18 16 10 8 8 8 8 8 7 7 9 7 6 4 3
11 11 10 10 10 9 7 4 3 4 6 8 9 10 11 12 13 13 12 10 10 10 9 10 11 11 11 16 18 16 9 7 7 6 7 8 8 12 14 9 8 6 4
10 10 10 9 9 8 6 4 3 4 6 8 8 9 11 12 13 13 11 9 9 10 9 9 9 10 11 16 18 17 9 9 7 6 7 10 11 14 14 9 8 7 4
11 11 10 9 9 7 5 3 3 4 5 5 7 8 10 11 11 11 10 10 10 10 9 9 8 8 10 15 18 17 9 9 9 7 6 6 14 14 13 10 7 8 8
11 10 9 9 8 6 3 2 3 2 4 6 7 8 9 9 9 11 10 10 12 12 10 10 8 6 7 11 14 17 14 13 10 8 6 8 15 14 13 9 10 13 10
10 9 8 9 8 6 3 2 2 1 5 6 7 8 9 9 10 11 12 10 10 10 9 9 9 7 6 9 15 17 18 16 9 8 13 15 16 14 10 12 13 10 6
10 9 7 8 8 6 4 3 2 2 5 7 7 8 10 10 9 8 9 9 10 10 10 10 9 8 7 7 9 9 11 15 12 10 14 17 16 11 11 10 7 5 4
9 8 7 7 8 7 5 4 2 3 6 7 7 8 8 10 9 7 6 7 7 10 12 11 11 12 10 10 15 13 10 10 11 12 8 7 7 6 5 5 5 4 4
9 8 7 7 7 6 5 4 2 3 7 7 7 7 7 8 8 9 7 8 8 11 12 13 13 9 13 19 19 19 20 21 22 13 9 7 7 6 6 6 4 4 4
Wind_Direction
233 229 222 205 197 197 195 192 189 185 179 177 177 176 179 178 175 175 172 172 170 169 167 165 162 163 163 161 149 132 125 118 126 98 56 5 354 267 248 241 235 245 245
232 223 222 207 198 196 195 193 191 187 186 186 182 179 172 175 176 173 175 176 174 173 174 169 171 170 162 158 159 143 134 133 150 128 112 17 331 306 255 243 231 241 246
228 220 217 211 200 197 196 196 192 190 190 184 174 167 161 160 174 181 183 183 179 179 177 176 172 173 171 173 172 162 152 151 170 154 145 153 215 279 305 260 242 239 235
228 220 215 211 203 202 197 196 195 191 190 185 181 179 183 187 189 183 181 180 182 181 180 177 176 176 177 175 177 172 160 150 162 162 122 141 151 153 292 307 274 248 238
226 219 217 215 207 201 198 196 195 194 190 190 187 186 191 189 169 170 175 179 183 183 182 180 180 180 180 178 176 172 171 165 163 163 152 131 103 131 153 263 295 295 252
233 228 223 218 211 201 197 194 194 196 192 193 193 192 192 183 175 178 182 183 183 185 185 183 184 183 182 181 180 179 180 180 171 170 163 161 162 179 172 205 244 264 276
239 236 225 219 214 203 198 195 195 197 194 194 197 197 195 188 187 184 185 182 182 188 189 185 186 185 184 181 178 179 185 184 182 184 186 184 182 162 163 173 210 243 280
249 245 236 223 218 208 202 197 198 198 195 196 199 200 196 193 192 188 186 189 190 190 183 184 186 185 182 181 181 183 187 187 191 193 189 189 194 176 172 169 164 211 286
297 272 257 238 224 214 208 203 199 199 196 197 198 198 196 196 194 188 186 189 187 180 179 183 184 184 182 182 180 187 188 187 195 196 194 195 196 190 187 173 168 174 228
318 303 276 251 237 223 214 206 202 200 197 196 198 198 196 196 192 186 189 189 185 179 178 183 184 183 183 183 183 185 186 188 194 191 193 200 195 189 184 183 182 182 191
323 315 300 272 248 232 216 208 205 201 197 196 197 197 195 194 189 189 191 189 182 180 182 183 184 184 185 185 187 188 184 191 193 190 193 201 193 188 189 181 179 188 183
326 322 315 302 273 249 230 214 207 202 199 196 195 197 194 190 191 192 190 186 183 183 183 181 183 185 186 186 188 189 188 191 193 192 191 198 190 191 187 184 191 195 193
330 333 333 325 302 276 250 227 213 207 200 192 192 194 192 190 193 192 187 184 184 182 180 181 185 186 186 187 189 189 190 192 193 190 192 194 186 194 189 186 192 193 188
333 337 338 331 319 297 267 237 225 211 199 190 190 193 193 193 192 188 185 184 183 182 182 184 186 185 184 185 186 186 186 187 188 187 189 190 190 193 188 188 189 178 173
340 339 336 329 323 316 298 264 236 217 199 191 191 194 194 189 182 180 182 182 182 183 181 179 180 181 181 184 182 182 181 180 178 180 184 185 184 184 180 176 174 167 169
332 331 332 328 321 314 301 279 251 226 200 194 193 190 185 180 178 178 176 177 179 178 177 179 178 180 184 178 176 175 177 175 174 174 172 167 169 166 161 158 157 159 165
325 325 323 318 312 306 297 273 248 227 200 194 188 183 179 178 177 173 172 176 176 173 176 177 176 179 178 171 171 170 169 169 170 168 164 156 156 151 144 138 131 131 134
319 318 317 316 312 307 300 282 250 220 199 190 184 180 176 175 171 171 174 175 171 170 170 171 172 171 171 166 163 158 157 155 159 162 161 156 152 148 138 129 118 105 98
307 308 307 306 307 307 302 287 243 213 194 186 182 177 173 171 168 171 172 167 165 165 163 162 164 165 162 160 156 151 152 146 147 146 148 149 146 144 137 132 126 113 94
313 313 312 311 312 310 306 286 239 206 196 187 180 173 169 169 169 169 165 158 158 158 154 152 156 159 160 158 154 151 151 147 143 137 140 143 144 146 142 141 140 137 133
312 318 317 315 313 312 307 285 249 215 199 175 165 164 164 165 163 156 153 151 150 147 146 144 143 151 157 156 156 155 154 152 146 142 141 141 142 142 141 136 138 141 132
318 322 321 319 317 316 313 297 268 223 168 155 154 157 157 154 151 146 146 149 148 145 145 141 136 134 146 152 156 154 150 146 142 142 140 136 137 134 132 127 126 124 118
314 315 316 320 321 320 315 297 286 196 153 149 151 151 149 148 149 149 149 149 151 149 150 147 143 140 137 141 144 145 141 136 131 133 135 132 130 125 121 121 122 119 113
310 312 319 324 323 322 318 300 279 194 155 151 149 147 146 144 146 147 152 154 156 153 151 150 147 143 140 140 141 139 134 128 123 122 123 120 117 109 110 111 106 100 114
304 308 310 313 315 319 314 302 268 174 154 148 145 143 144 144 142 140 144 152 161 163 158 158 154 154 155 158 149 144 141 141 135 126 114 112 117 114 108 100 95 95 99
304 306 308 309 312 314 306 293 254 170 151 146 146 145 142 140 138 130 109 90 121 132 140 147 147 144 143 144 144 141 140 138 137 127 130 131 133 133 131 127 116 103 105